| time (UTC) | temp C | wind direction | speed KPH | gust KPH | rain 1hr cm | rain 24hr cm | rain mn cm | humidity % | barometer mb |
| 20260505121705 | 15 | 235 | 6.4 | 11.3 | 0.00 | 0.00 | 0.00 | 74 | 1022.0 |
| 20260505115705 | 15 | 269 | 6.4 | 11.3 | 0.00 | 0.00 | 0.00 | 74 | 1022.1 |
| 20260505111705 | 15 | 260 | 8.0 | 12.9 | 0.00 | 0.00 | 0.00 | 71 | 1022.0 |
| 20260505110706 | 15 | 254 | 3.2 | 12.9 | 0.00 | 0.00 | 0.00 | 72 | 1022.0 |
| 20260505102207 | 15 | 243 | 4.8 | 9.7 | 0.00 | 0.00 | 0.00 | 74 | 1021.9 |
| 20260505101206 | 15 | 229 | 3.2 | 9.7 | 0.00 | 0.00 | 0.00 | 75 | 1022.0 |
| 20260505095705 | 15 | 277 | 4.8 | 8.0 | 0.00 | 0.00 | 0.00 | 75 | 1022.0 |
| 20260505094706 | 15 | 282 | 3.2 | 4.8 | 0.00 | 0.00 | 0.00 | 75 | 1022.0 |
| 20260505092706 | 15 | 261 | 1.6 | 8.0 | 0.00 | 0.00 | 0.00 | 75 | 1022.0 |
| 20260505091206 | 15 | 281 | 3.2 | 12.9 | 0.00 | 0.00 | 0.00 | 75 | 1022.0 |
| 20260505084705 | 15 | 262 | 1.6 | 4.8 | 0.00 | 0.00 | 0.00 | 75 | 1021.8 |
| 20260505082705 | 15 | 275 | 3.2 | 9.7 | 0.00 | 0.00 | 0.00 | 75 | 1021.6 |
| 20260505082205 | 15 | 297 | 1.6 | 4.8 | 0.00 | 0.00 | 0.00 | 75 | 1021.6 |
| 20260505081705 | 15 | 279 | 3.2 | 8.0 | 0.00 | 0.00 | 0.00 | 75 | 1021.5 |
| 20260505075205 | 15 | 287 | 3.2 | 9.7 | 0.00 | 0.00 | 0.00 | 75 | 1021.3 |
| 20260505074706 | 15 | 267 | 1.6 | 9.7 | 0.00 | 0.00 | 0.00 | 74 | 1021.3 |
| 20260505074205 | 15 | 281 | 4.8 | 12.9 | 0.00 | 0.00 | 0.00 | 76 | 1021.2 |
| 20260505073706 | 15 | 282 | 3.2 | 4.8 | 0.00 | 0.00 | 0.00 | 74 | 1021.2 |
| 20260505073206 | 15 | 267 | 3.2 | 8.0 | 0.00 | 0.00 | 0.00 | 74 | 1021.1 |
| 20260505072205 | 15 | 274 | 4.8 | 9.7 | 0.00 | 0.00 | 0.00 | 74 | 1021.1 |
| 20260505071206 | 15 | 263 | 3.2 | 4.8 | 0.00 | 0.00 | 0.00 | 74 | 1020.9 |
| 20260505065705 | 15 | 250 | 3.2 | 9.7 | 0.00 | 0.00 | 0.00 | 73 | 1020.9 |
| 20260505064705 | 16 | 274 | 3.2 | 12.9 | 0.00 | 0.00 | 0.00 | 73 | 1020.9 |
| 20260505063705 | 16 | 264 | 4.8 | 9.7 | 0.00 | 0.00 | 0.00 | 72 | 1020.8 |
| 20260505063205 | 16 | 268 | 4.8 | 9.7 | 0.00 | 0.00 | 0.00 | 72 | 1020.8 |
| 20260505062705 | 16 | 279 | 3.2 | 9.7 | 0.00 | 0.00 | 0.00 | 72 | 1020.8 |
| 20260505062205 | 16 | 286 | 4.8 | 12.9 | 0.00 | 0.00 | 0.00 | 72 | 1020.8 |
| 20260505060705 | 16 | 265 | 6.4 | 9.7 | 0.00 | 0.00 | 0.00 | 70 | 1020.7 |
| 20260505055705 | 16 | 247 | 4.8 | 12.9 | 0.00 | 0.00 | 0.00 | 69 | 1020.6 |
| 20260505053205 | 16 | 276 | 4.8 | 12.9 | 0.00 | 0.00 | 0.00 | 67 | 1020.3 |
| 20260505052705 | 16 | 260 | 4.8 | 12.9 | 0.00 | 0.00 | 0.00 | 67 | 1020.2 |
| 20260505052205 | 16 | 298 | 4.8 | 9.7 | 0.00 | 0.00 | 0.00 | 67 | 1020.2 |
| 20260505051205 | 16 | 244 | 4.8 | 8.0 | 0.00 | 0.00 | 0.00 | 67 | 1020.1 |
| 20260505050705 | 16 | 311 | 4.8 | 11.3 | 0.00 | 0.00 | 0.00 | 68 | 1020.2 |
| 20260505041205 | 16 | 260 | 4.8 | 14.5 | 0.00 | 0.00 | 0.00 | 66 | 1019.7 |
| 20260505040706 | 16 | 255 | 8.0 | 12.9 | 0.00 | 0.00 | 0.00 | 66 | 1019.7 |
| 20260505034205 | 16 | 228 | 4.8 | 14.5 | 0.00 | 0.00 | 0.00 | 67 | 1019.5 |
| 20260505032705 | 16 | 249 | 6.4 | 12.9 | 0.00 | 0.00 | 0.00 | 67 | 1019.5 |
| 20260505032205 | 16 | 247 | 8.0 | 14.5 | 0.00 | 0.00 | 0.00 | 68 | 1019.5 |
| 20260505030705 | 16 | 254 | 8.0 | 16.1 | 0.00 | 0.00 | 0.00 | 68 | 1019.6 |
| 20260505030205 | 16 | 246 | 8.0 | 19.3 | 0.00 | 0.00 | 0.00 | 68 | 1019.6 |
| 20260505025706 | 16 | 258 | 9.7 | 16.1 | 0.00 | 0.00 | 0.00 | 68 | 1019.7 |
| 20260505024705 | 17 | 248 | 9.7 | 19.3 | 0.00 | 0.00 | 0.00 | 67 | 1019.7 |
| 20260505024205 | 17 | 230 | 8.0 | 16.1 | 0.00 | 0.00 | 0.00 | 66 | 1019.7 |
| 20260505023205 | 17 | 283 | 6.4 | 14.5 | 0.00 | 0.00 | 0.00 | 67 | 1019.6 |
| 20260505022704 | 17 | 254 | 4.8 | 9.7 | 0.00 | 0.00 | 0.00 | 69 | 1019.6 |
| 20260505022205 | 16 | 234 | 8.0 | 12.9 | 0.00 | 0.00 | 0.00 | 68 | 1019.7 |
| 20260505021705 | 16 | 263 | 8.0 | 19.3 | 0.00 | 0.00 | 0.00 | 68 | 1019.7 |
| 20260505020704 | 16 | 256 | 8.0 | 14.5 | 0.00 | 0.00 | 0.00 | 69 | 1019.8 |
| 20260505020206 | 16 | 273 | 8.0 | 12.9 | 0.00 | 0.00 | 0.00 | 69 | 1019.8 |
| 20260505015705 | 16 | 258 | 6.4 | 14.5 | 0.00 | 0.00 | 0.00 | 70 | 1019.8 |
| 20260505014205 | 16 | 241 | 8.0 | 16.1 | 0.00 | 0.00 | 0.00 | 68 | 1019.9 |
| 20260505012705 | 16 | 228 | 8.0 | 19.3 | 0.00 | 0.00 | 0.00 | 70 | 1019.9 |
| 20260505011705 | 16 | 257 | 8.0 | 19.3 | 0.00 | 0.00 | 0.00 | 70 | 1019.9 |
| 20260505010204 | 16 | 244 | 11.3 | 24.1 | 0.00 | 0.00 | 0.00 | 71 | 1019.9 |
| 20260505005704 | 16 | 247 | 9.7 | 22.5 | 0.00 | 0.00 | 0.00 | 71 | 1019.8 |
| 20260505005205 | 16 | 242 | 9.7 | 16.1 | 0.00 | 0.00 | 0.00 | 72 | 1019.8 |
| 20260505004706 | 15 | 256 | 9.7 | 19.3 | 0.00 | 0.00 | 0.00 | 73 | 1019.7 |
| 20260505003705 | 15 | 269 | 9.7 | 19.3 | 0.00 | 0.00 | 0.00 | 74 | 1019.7 |
| 20260505003205 | 15 | 234 | 9.7 | 16.1 | 0.00 | 0.00 | 0.00 | 74 | 1019.6 |
| 20260505002705 | 15 | 253 | 9.7 | 19.3 | 0.00 | 0.00 | 0.00 | 74 | 1019.6 |
| 20260505002205 | 16 | 253 | 9.7 | 19.3 | 0.00 | 0.00 | 0.00 | 74 | 1019.5 |
| 20260504234705 | 15 | 270 | 11.3 | 22.5 | 0.00 | 0.00 | 0.00 | 76 | 1019.1 |
| 20260504234205 | 15 | 252 | 9.7 | 20.9 | 0.00 | 0.00 | 0.00 | 77 | 1019.1 |
| 20260504232204 | 15 | 257 | 11.3 | 19.3 | 0.00 | 0.00 | 0.00 | 78 | 1019.0 |
| 20260504231704 | 15 | 272 | 8.0 | 19.3 | 0.00 | 0.00 | 0.00 | 78 | 1018.9 |
| 20260504231205 | 15 | 268 | 9.7 | 19.3 | 0.00 | 0.00 | 0.00 | 78 | 1018.8 |
| 20260504230205 | 15 | 278 | 8.0 | 20.9 | 0.00 | 0.00 | 0.00 | 80 | 1018.7 |
| 20260504224205 | 14 | 266 | 9.7 | 19.3 | 0.00 | 0.00 | 0.00 | 81 | 1018.6 |
| 20260504223706 | 14 | 254 | 11.3 | 20.9 | 0.00 | 0.00 | 0.00 | 81 | 1018.5 |
| 20260504221705 | 13 | 268 | 11.3 | 22.5 | 0.00 | 0.00 | 0.00 | 82 | 1018.0 |
| 20260504221205 | 13 | 241 | 8.0 | 19.3 | 0.00 | 0.00 | 0.00 | 83 | 1017.9 |
| 20260504220205 | 13 | 242 | 11.3 | 24.1 | 0.00 | 0.00 | 0.00 | 83 | 1017.7 |
| 20260504215706 | 13 | 255 | 9.7 | 19.3 | 0.00 | 0.00 | 0.00 | 83 | 1017.6 |
| 20260504214705 | 13 | 299 | 6.4 | 24.1 | 0.00 | 0.00 | 0.00 | 84 | 1017.4 |
| 20260504214204 | 13 | 283 | 9.7 | 19.3 | 0.00 | 0.00 | 0.00 | 84 | 1017.4 |
| 20260504212705 | 13 | 252 | 9.7 | 20.9 | 0.00 | 0.00 | 0.00 | 84 | 1017.1 |
| 20260504212206 | 13 | 278 | 8.0 | 19.3 | 0.00 | 0.00 | 0.00 | 84 | 1017.0 |
| 20260504211204 | 13 | 274 | 8.0 | 20.9 | 0.00 | 0.00 | 0.00 | 84 | 1016.8 |
| 20260504210705 | 13 | 273 | 9.7 | 19.3 | 0.00 | 0.00 | 0.00 | 84 | 1016.7 |
| 20260504205706 | 13 | 266 | 8.0 | 19.3 | 0.00 | 0.00 | 0.00 | 84 | 1016.5 |
| 20260504205205 | 13 | 241 | 9.7 | 19.3 | 0.00 | 0.00 | 0.00 | 84 | 1016.5 |
| 20260504204705 | 13 | 266 | 9.7 | 24.1 | 0.00 | 0.00 | 0.00 | 85 | 1016.5 |
| 20260504203704 | 13 | 276 | 9.7 | 24.1 | 0.00 | 0.00 | 0.00 | 85 | 1016.3 |
| 20260504203205 | 13 | 270 | 9.7 | 20.9 | 0.00 | 0.00 | 0.00 | 85 | 1016.2 |
| 20260504202204 | 13 | 285 | 8.0 | 22.5 | 0.00 | 0.00 | 0.00 | 85 | 1016.0 |
| 20260504201205 | 13 | 266 | 11.3 | 20.9 | 0.00 | 0.00 | 0.00 | 84 | 1015.8 |
| 20260504200705 | 13 | 250 | 9.7 | 20.9 | 0.00 | 0.00 | 0.00 | 84 | 1015.8 |
| 20260504200204 | 13 | 268 | 12.9 | 24.1 | 0.00 | 0.00 | 0.00 | 84 | 1015.8 |
| 20260504195204 | 13 | 263 | 9.7 | 19.3 | 0.00 | 0.00 | 0.00 | 84 | 1015.7 |
| 20260504194705 | 14 | 273 | 11.3 | 19.3 | 0.00 | 0.00 | 0.00 | 84 | 1015.6 |
| 20260504194205 | 14 | 287 | 8.0 | 22.5 | 0.00 | 0.00 | 0.00 | 84 | 1015.5 |
| 20260504193204 | 14 | 276 | 9.7 | 19.3 | 0.00 | 0.00 | 0.00 | 84 | 1015.4 |
| 20260504192205 | 13 | 291 | 11.3 | 22.5 | 0.00 | 0.00 | 0.00 | 83 | 1015.3 |
| 20260504191705 | 13 | 274 | 9.7 | 24.1 | 0.00 | 0.00 | 0.00 | 83 | 1015.2 |
| 20260504191204 | 14 | 258 | 11.3 | 24.1 | 0.00 | 0.00 | 0.00 | 83 | 1015.2 |
| 20260504190705 | 14 | 268 | 12.9 | 25.7 | 0.00 | 0.00 | 0.00 | 83 | 1015.2 |
| 20260504185704 | 14 | 274 | 12.9 | 27.4 | 0.00 | 0.00 | 0.00 | 83 | 1015.1 |
| 20260504185204 | 14 | 230 | 9.7 | 22.5 | 0.00 | 0.00 | 0.00 | 83 | 1015.0 |
| 20260504184706 | 14 | 264 | 9.7 | 24.1 | 0.00 | 0.00 | 0.00 | 83 | 1014.9 |
| 20260504183204 | 14 | 290 | 11.3 | 24.1 | 0.00 | 0.00 | 0.00 | 83 | 1014.7 |
| 20260504182204 | 14 | 285 | 9.7 | 20.9 | 0.00 | 0.00 | 0.00 | 82 | 1014.7 |
| 20260504181704 | 14 | 266 | 12.9 | 25.7 | 0.00 | 0.00 | 0.00 | 82 | 1014.5 |
| 20260504180705 | 14 | 267 | 12.9 | 22.5 | 0.00 | 0.00 | 0.00 | 82 | 1014.5 |
| 20260504175204 | 14 | 256 | 9.7 | 22.5 | 0.00 | 0.00 | 0.00 | 83 | 1014.4 |
| 20260504174204 | 14 | 267 | 11.3 | 27.4 | 0.00 | 0.00 | 0.00 | 83 | 1014.2 |
| 20260504173706 | 14 | 255 | 9.7 | 19.3 | 0.00 | 0.00 | 0.00 | 83 | 1014.2 |
| 20260504172204 | 14 | 276 | 9.7 | 22.5 | 0.00 | 0.00 | 0.00 | 82 | 1014.2 |
| 20260504170704 | 14 | 289 | 12.9 | 29.0 | 0.00 | 0.00 | 0.00 | 81 | 1014.1 |
| 20260504170204 | 14 | 271 | 12.9 | 29.0 | 0.00 | 0.00 | 0.00 | 81 | 1014.0 |
| 20260504160204 | 15 | 276 | 12.9 | 32.2 | 0.00 | 0.00 | 0.00 | 79 | 1013.6 |
| 20260504150204 | 15 | 282 | 11.3 | 32.2 | 0.00 | 0.00 | 0.00 | 79 | 1013.3 |
| 20260504141205 | 15 | 277 | 9.7 | 19.3 | 0.00 | 0.00 | 0.00 | 78 | 1012.8 |
| 20260504130206 | 15 | 271 | 11.3 | 33.8 | 0.00 | 0.00 | 0.00 | 75 | 1012.3 |